Wind_Speed
31 40 35 30 27 27 27 27 24 23 27 28 30 27 25 24 27 28 28 25 20 7 19 20 19 15 9 10 2 3 5 3 5 4 3 3 3 5 3 3 5 7 4 3 2 5 7 9 6 5 3 2 8 12
29 32 31 29 28 25 24 21 20 22 24 26 30 25 23 22 24 28 32 28 18 23 12 11 17 21 27 23 18 9 2 6 10 3 3 3 2 1 5 3 1 3 5 4 6 4 1 4 1 3 5 4 6 11
24 26 26 26 26 24 22 20 16 15 16 23 24 23 23 24 24 27 27 18 18 17 23 31 27 26 22 25 21 9 7 7 6 4 5 2 3 3 3 4 3 1 2 3 2 3 3 4 4 4 4 2 6 9
21 22 24 22 22 21 20 19 17 16 18 18 19 20 21 20 22 22 26 25 22 9 5 9 12 18 14 17 16 24 14 12 9 12 0 2 3 5 3 2 3 3 5 4 3 3 3 10 8 7 6 6 8 10
17 17 17 19 20 19 18 16 16 14 18 18 17 18 20 20 21 24 29 28 27 15 4 5 5 5 9 22 17 14 13 9 7 4 1 3 2 3 0 2 2 6 5 4 4 5 3 2 13 11 8 8 8 12
17 15 16 17 18 18 16 17 14 17 19 14 14 17 19 18 18 17 10 30 31 25 7 2 1 5 6 16 15 11 14 12 6 4 4 3 4 3 3 2 1 5 6 3 2 10 4 7 13 13 9 9 8 10
17 18 17 17 18 17 16 13 15 20 18 15 14 16 18 21 20 21 8 7 20 27 3 2 2 2 7 15 12 12 13 4 3 5 5 3 2 3 3 2 4 7 7 6 7 10 8 13 8 14 11 10 9 9
17 19 18 15 16 16 16 12 21 20 16 15 14 16 19 20 15 22 30 14 27 16 5 2 2 2 6 5 5 7 8 10 4 2 2 2 3 1 1 2 10 9 10 12 9 2 3 12 17 16 13 12 13 14
16 18 16 16 16 15 12 18 21 18 15 13 18 15 7 9 8 11 18 27 21 5 6 3 3 3 5 4 4 3 4 2 1 1 0 2 1 2 3 10 14 14 7 12 8 5 9 14 19 17 14 14 13 15
18 17 17 17 15 12 19 21 18 16 16 14 8 5 5 8 20 18 16 15 15 7 6 2 2 1 5 2 2 1 3 1 1 2 1 2 3 4 5 9 14 12 5 13 13 9 12 16 18 19 17 12 10 11
18 16 15 18 16 17 24 21 15 16 10 6 7 4 13 16 10 5 6 4 4 2 3 4 5 4 2 3 2 2 2 1 2 2 3 1 2 4 8 14 13 7 8 10 5 6 5 8 15 16 15 15 12 10
19 17 17 16 21 22 21 20 16 12 6 0 5 10 10 4 3 4 1 0 1 3 3 5 5 6 4 3 4 1 2 2 3 1 3 2 3 6 12 15 14 10 9 8 7 8 8 7 9 10 11 12 11 9
17 16 18 24 21 19 15 19 15 13 13 10 5 1 2 4 6 3 2 1 2 2 5 5 3 4 4 4 5 2 3 2 0 3 2 3 2 4 10 16 15 11 8 8 6 5 6 7 7 7 7 8 7 8
21 24 25 22 18 15 19 17 14 14 4 2 1 4 3 3 2 1 1 1 2 2 15 15 5 3 3 4 1 4 2 1 3 1 4 2 3 9 13 15 13 10 8 7 5 5 4 4 5 6 6 5 5 7
28 24 21 17 15 16 20 20 11 7 2 4 5 3 3 2 2 2 2 1 3 11 10 9 6 3 3 4 1 3 2 2 4 3 2 2 7 12 14 13 9 7 6 6 5 5 5 5 5 5 6 5 4 5
29 26 19 13 11 21 15 9 7 6 5 4 6 3 2 2 3 4 5 3 4 9 8 5 3 3 2 3 2 2 5 4 2 1 2 4 9 11 12 12 11 9 7 6 7 5 4 4 4 6 6 7 6 6
28 23 20 14 15 11 3 3 5 7 5 4 4 8 5 5 2 3 5 6 5 4 2 3 3 2 2 2 1 2 1 1 4 7 6 6 8 9 9 10 10 9 8 8 7 6 5 6 6 6 5 6 8 9
19 23 19 16 11 7 9 9 6 5 6 7 3 5 6 5 4 6 4 7 5 3 2 2 4 3 2 2 1 2 4 8 10 10 9 8 6 6 6 7 8 9 8 8 7 6 6 6 6 6 6 6 8 9
19 19 12 8 12 8 5 6 6 4 5 3 5 5 4 4 7 7 7 8 8 8 4 4 3 2 2 2 2 6 12 7 9 7 7 6 6 6 6 6 6 8 8 7 6 6 6 7 6 6 6 6 7 8
15 11 12 10 7 6 4 5 4 4 2 2 2 3 3 3 5 8 10 8 6 4 6 3 2 2 2 5 5 6 5 6 11 11 8 7 7 7 7 7 6 5 4 4 4 3 5 6 6 6 6 5 5 5
12 13 10 8 6 7 5 3 4 3 3 3 3 3 3 3 4 6 8 9 7 5 3 4 5 8 10 10 10 10 10 8 4 1 6 10 8 8 8 7 6 5 2 1 2 3 3 0 3 3 4 3 2 3
9 6 7 7 5 4 5 6 3 3 2 2 3 3 4 3 4 5 5 8 4 4 3 4 7 8 11 10 10 9 8 7 8 10 10 10 11 8 8 8 8 7 6 5 4 3 2 1 3 2 3 2 2 3
6 5 6 6 4 4 2 4 2 3 3 2 2 3 3 3 3 3 4 4 3 4 7 9 9 10 12 12 10 11 10 7 10 12 12 11 10 8 7 5 4 2 0 2 3 3 2 2 1 2 5 4 4 4
6 4 5 5 6 1 2 3 3 3 2 3 2 2 1 2 2 4 2 2 4 5 8 9 10 11 10 8 7 8 8 7 8 10 8 6 5 4 2 2 3 4 4 5 4 3 4 4 3 4 7 6 5 6
3 7 4 4 5 4 5 4 5 4 2 1 2 2 2 1 2 2 2 3 6 7 8 8 6 4 5 7 6 6 6 5 4 2 5 3 1 1 2 2 5 4 2 2 3 4 3 2 3 5 6 5 5 8
5 6 3 1 3 3 1 2 1 2 1 2 1 2 2 3 3 2 2 5 8 6 5 5 6 7 6 6 5 3 2 4 4 3 2 3 3 4 4 2 3 4 1 3 2 1 3 5 5 6 6 6 6 8
4 2 3 3 1 1 3 2 2 3 2 1 2 2 3 2 3 2 4 6 6 5 3 3 5 5 4 3 3 4 4 5 4 3 2 2 3 3 4 2 1 2 1 2 2 2 2 3 5 5 6 8 9 10
3 4 2 3 3 3 3 2 2 2 1 3 1 2 3 5 3 4 5 6 4 2 2 4 5 4 3 3 3 2 5 4 2 2 3 3 3 3 3 2 0 1 3 3 3 3 6 6 4 4 5 7 10 11
3 3 1 4 2 3 2 1 2 1 2 2 2 1 2 2 5 5 8 7 5 4 3 4 4 3 1 2 5 7 6 7 5 4 4 4 2 2 1 1 2 2 3 3 4 6 5 3 3 4 5 5 7 8
2 4 1 1 3 1 1 1 1 2 1 1 1 1 2 3 6 7 8 8 10 9 5 4 2 4 4 4 4 4 4 4 3 3 2 2 1 1 2 3 3 2 2 3 3 5 6 4 4 4 5 6 6 5
2 2 1 0 1 1 2 2 4 4 3 3 4 4 3 2 4 9 11 10 10 11 8 9 8 6 4 3 3 3 3 2 2 4 4 4 3 3 4 4 4 4 4 4 4 4 3 3 4 4 5 5 5 4
2 2 1 0 1 4 4 2 3 3 4 5 5 6 3 3 3 4 5 9 14 13 12 12 10 8 6 7 8 7 5 4 3 3 5 5 5 5 5 5 5 5 4 4 4 4 4 4 4 4 4 4 4 4
2 2 1 1 1 2 2 2 2 2 3 3 4 5 5 3 4 5 4 6 8 10 11 11 10 9 7 6 7 7 6 5 6 7 6 6 6 7 7 6 6 5 4 4 4 4 4 4 4 4 5 4 4 3
Wind_Direction
178 172 180 175 178 184 191 196 206 215 207 208 212 203 209 216 214 220 233 228 233 267 264 246 255 243 232 202 217 213 126 153 155 183 180 175 175 214 183 202 165 178 173 208 164 223 246 154 125 175 180 117 165 176
157 157 160 172 175 179 181 183 202 200 205 204 208 202 212 222 224 224 232 233 241 238 263 256 268 259 248 239 220 210 262 171 171 139 225 150 169 122 180 221 156 180 183 186 186 214 173 211 90 162 155 151 181 181
152 161 167 170 176 184 185 185 192 216 214 209 204 210 217 223 222 224 225 223 238 244 265 261 260 263 252 245 222 193 212 200 185 173 189 141 160 135 179 235 116 200 148 150 110 223 234 217 194 171 174 178 175 182
158 164 170 174 177 182 190 196 193 210 214 208 206 213 214 219 224 226 227 234 230 260 250 259 234 231 239 215 213 218 227 198 176 161 206 182 151 179 200 214 182 174 137 152 284 282 246 233 212 187 163 159 162 172
166 168 172 179 185 187 191 202 201 205 195 201 211 215 211 218 214 224 229 232 236 233 299 277 198 210 234 212 217 202 190 193 172 73 74 249 162 116 352 67 237 188 161 165 222 200 139 195 194 178 165 155 165 176
175 176 180 185 185 190 198 204 219 197 197 199 198 207 202 200 212 223 241 237 236 229 257 268 247 352 214 203 196 195 200 167 142 148 212 251 219 178 124 184 229 184 181 171 180 156 115 121 158 168 160 149 155 173
179 186 186 188 189 195 202 215 195 188 194 199 207 211 217 224 217 226 213 252 216 200 236 274 323 53 164 179 182 177 175 190 206 219 191 213 181 145 100 186 173 166 167 157 138 137 114 150 170 166 159 147 149 158
186 190 190 197 199 205 204 214 185 193 200 205 234 229 227 230 244 225 227 206 167 167 195 206 230 125 173 153 129 142 156 196 247 213 155 127 114 73 196 186 155 152 143 141 147 119 192 165 158 159 161 157 154 160
187 188 201 200 204 207 221 187 187 193 197 227 216 226 205 198 207 196 175 156 163 166 152 201 153 195 161 119 126 131 162 78 210 115 313 105 343 215 212 175 173 164 160 166 141 122 144 157 160 164 168 166 169 171
186 195 199 202 208 227 189 184 189 202 227 212 184 205 210 165 134 140 149 174 201 206 188 153 149 149 157 133 73 104 45 107 98 276 105 84 245 251 253 193 175 170 166 165 139 139 160 165 172 176 180 188 198 189
194 201 206 205 228 191 170 179 192 180 165 184 186 202 112 131 122 162 163 166 174 97 161 131 169 143 132 111 143 43 151 16 110 257 136 308 276 229 162 158 157 137 128 147 84 110 149 192 183 187 194 197 199 200
195 198 211 200 172 165 174 180 190 172 167 352 105 96 134 175 137 95 18 288 109 170 147 147 138 119 114 112 96 27 104 44 200 331 78 271 255 168 161 160 158 140 134 140 100 93 125 141 187 193 194 191 193 192
199 208 164 152 156 153 163 159 143 124 112 85 15 176 40 360 56 100 174 318 83 161 153 147 79 97 105 82 71 84 73 204 306 51 231 231 304 173 163 162 158 150 146 144 131 122 139 152 170 180 180 183 187 191
149 144 140 149 152 152 137 110 99 101 82 175 66 38 62 360 64 110 325 63 347 241 140 122 79 78 77 60 93 87 257 71 46 349 237 261 147 151 148 153 159 161 159 150 141 128 136 161 174 183 192 196 202 198
129 133 134 136 134 119 105 80 101 143 60 59 38 50 56 53 53 23 14 40 110 143 130 104 76 89 35 88 37 112 71 255 205 232 244 58 138 145 143 145 141 148 157 160 157 143 132 145 154 179 193 196 198 202
129 123 111 130 122 109 87 52 104 108 69 58 50 69 11 48 25 39 53 70 101 129 114 70 95 61 42 128 113 190 158 219 251 27 111 106 141 143 145 145 141 139 142 159 159 151 162 179 182 185 192 196 192 197
146 121 110 111 118 118 81 37 60 56 53 46 54 51 75 66 39 29 44 41 78 110 90 93 68 188 109 79 80 156 169 348 113 98 99 109 131 139 149 156 156 150 146 150 158 151 155 167 179 190 206 215 218 219
157 137 116 94 131 141 49 50 68 68 63 45 62 23 54 55 35 39 61 53 67 78 81 102 118 67 105 118 224 127 109 115 125 117 109 103 116 129 135 165 172 173 169 164 161 158 157 168 183 194 207 213 222 229
117 142 124 100 127 117 51 40 46 82 61 59 69 62 80 103 53 78 113 87 79 83 92 57 68 44 52 21 51 131 145 149 149 136 119 115 111 113 118 131 147 164 170 175 179 186 191 198 201 206 217 226 233 241
110 123 149 131 118 62 67 48 58 79 80 57 61 40 63 40 62 66 110 100 81 58 55 44 40 9 25 66 109 144 168 165 153 136 126 121 120 123 121 124 135 164 176 204 217 228 225 225 236 244 240 235 232 235
103 103 124 155 101 61 74 58 66 75 94 80 73 59 58 47 41 44 32 40 63 40 62 60 93 101 97 95 94 89 95 88 75 96 158 139 125 124 121 122 120 127 126 110 106 72 100 36 294 233 207 202 228 228
70 91 87 70 79 75 63 38 76 87 76 86 61 53 54 41 36 36 55 51 58 38 65 118 131 118 109 107 103 95 86 93 96 99 102 120 115 112 112 99 103 101 94 94 97 102 101 65 53 123 185 168 153 149
54 58 54 42 72 62 64 31 64 33 71 18 48 56 39 47 73 72 73 61 76 75 115 123 125 124 124 114 110 101 95 92 97 97 99 106 104 97 87 93 83 92 174 265 258 235 231 224 234 206 199 189 181 170
42 53 36 42 36 58 37 41 53 44 63 41 55 37 11 24 69 69 80 69 98 112 135 126 126 125 127 128 116 103 103 104 113 116 115 111 95 93 68 9 324 300 274 267 255 248 222 203 233 221 207 205 199 201
70 20 34 1 31 45 30 10 353 44 53 10 69 340 317 10 78 67 116 126 137 118 132 164 166 149 147 125 115 120 122 125 128 121 157 160 187 276 307 350 351 342 314 178 185 179 198 237 209 188 191 196 200 187
70 21 62 41 348 72 209 48 2 196 121 29 242 319 4 78 72 167 118 153 157 147 143 136 155 162 160 158 149 147 170 188 190 222 225 245 256 257 274 312 12 13 65 201 207 197 186 177 177 183 189 192 193 195
65 325 54 36 5 82 48 62 72 84 68 124 288 20 63 81 217 195 150 164 176 173 182 214 210 208 200 202 232 281 261 216 212 233 247 276 274 242 213 201 332 353 114 146 140 152 159 185 191 196 199 195 196 198
72 35 113 0 53 47 130 64 67 41 302 2 360 47 158 187 214 160 169 163 176 224 238 174 179 194 213 259 275 165 145 143 142 122 102 98 105 136 163 170 35 102 126 122 113 122 129 130 136 171 198 210 199 191
63 28 9 25 55 56 48 77 170 61 349 347 123 210 200 199 181 172 171 179 175 156 145 166 186 202 202 108 122 138 145 142 141 135 115 115 110 129 140 127 118 127 148 152 142 138 136 130 135 145 155 163 173 178
27 7 41 90 100 230 127 153 196 292 239 257 239 184 220 213 203 205 205 212 204 195 191 197 134 116 134 129 136 156 171 184 187 194 192 172 80 123 167 149 130 131 143 157 173 174 165 156 151 159 166 170 175 187
319 330 337 84 216 154 201 252 273 265 240 237 246 263 258 248 245 237 228 220 211 207 213 205 208 213 228 246 247 258 297 283 259 222 211 201 205 194 191 176 162 152 144 141 146 152 163 173 169 168 167 170 171 176
251 242 223 326 232 212 227 231 246 246 229 218 228 224 223 219 247 246 234 224 215 211 207 208 220 237 241 235 232 234 245 266 255 192 181 182 190 189 178 166 162 160 160 162 164 163 151 150 155 156 160 163 160 155
284 258 256 229 146 196 209 253 234 261 234 221 206 218 218 232 260 231 226 208 202 201 209 216 221 221 218 215 216 219 215 201 178 165 164 165 162 159 158 159 157 154 148 148 151 147 145 144 146 144 141 138 136 137
Height
1339 1346 1356 1366 1375 1382 1390 1396 1402 1407 1411 1416 1419 1426 1432 1437 1441 1445 1447 1450 1453 1452 1447 1449 1449 1448 1446 1446 1446 1443 1447 1449 1450 1451 1452 1454 1457 1452 1454 1447 1452 1456 1461 1465 1464 1460 1458 1449 1455 1458 1454 1454 1454 1455
1341 1347 1357 1367 1375 1382 1388 1393 1398 1402 1407 1412 1416 1421 1427 1432 1436 1440 1443 1445 1449 1450 1444 1441 1440 1440 1439 1440 1443 1442 1439 1439 1442 1447 1449 1447 1449 1450 1449 1452 1445 1453 1449 1454 1454 1453 1448 1450 1450 1450 1451 1452 1453 1454
1343 1351 1360 1366 1374 1380 1386 1390 1395 1401 1404 1409 1413 1418 1423 1427 1431 1435 1437 1442 1445 1444 1441 1438 1431 1434 1434 1433 1436 1438 1438 1437 1437 1438 1440 1439 1443 1447 1451 1450 1445 1445 1446 1450 1451 1449 1448 1449 1450 1450 1451 1452 1453 1455
1347 1354 1361 1366 1372 1378 1384 1389 1393 1398 1401 1405 1409 1414 1419 1423 1427 1430 1432 1436 1440 1440 1434 1427 1426 1426 1427 1428 1430 1433 1434 1435 1437 1436 1438 1438 1439 1438 1444 1441 1443 1443 1445 1449 1451 1448 1449 1448 1448 1449 1451 1452 1453 1455
1348 1354 1359 1365 1371 1377 1382 1387 1391 1395 1399 1403 1407 1411 1415 1419 1423 1426 1428 1430 1433 1439 1431 1426 1423 1424 1422 1425 1427 1429 1431 1433 1434 1437 1440 1439 1435 1437 1440 1440 1442 1439 1442 1449 1448 1440 1443 1443 1445 1449 1451 1452 1454 1455
1349 1355 1361 1367 1372 1376 1381 1385 1389 1392 1397 1401 1405 1408 1412 1415 1419 1422 1423 1423 1424 1431 1433 1426 1422 1420 1419 1421 1424 1427 1429 1431 1434 1435 1437 1435 1433 1435 1441 1442 1436 1436 1437 1438 1439 1440 1441 1442 1446 1449 1451 1453 1454 1456
1351 1358 1363 1367 1371 1376 1380 1384 1387 1391 1396 1399 1403 1406 1409 1412 1413 1415 1415 1415 1415 1425 1427 1426 1422 1421 1420 1422 1425 1427 1429 1431 1433 1432 1431 1431 1431 1430 1437 1441 1434 1436 1437 1438 1438 1439 1443 1445 1447 1450 1452 1454 1456 1458
1354 1359 1363 1367 1370 1374 1378 1382 1386 1390 1394 1398 1401 1403 1404 1407 1409 1408 1409 1409 1413 1420 1426 1424 1422 1422 1422 1422 1425 1426 1428 1432 1432 1429 1429 1429 1431 1432 1436 1433 1434 1436 1437 1438 1439 1440 1441 1444 1447 1450 1453 1455 1457 1460
1354 1358 1362 1366 1370 1374 1377 1381 1385 1390 1394 1396 1398 1399 1400 1402 1403 1403 1405 1410 1415 1419 1418 1420 1420 1423 1420 1421 1423 1425 1426 1430 1430 1429 1429 1431 1433 1433 1429 1430 1433 1435 1436 1438 1440 1441 1442 1444 1447 1451 1454 1456 1458 1461
1355 1359 1362 1366 1369 1372 1376 1381 1385 1389 1391 1394 1396 1396 1395 1394 1396 1402 1409 1410 1413 1414 1415 1414 1415 1418 1419 1420 1423 1425 1424 1430 1433 1432 1430 1433 1433 1427 1426 1428 1432 1435 1436 1438 1440 1443 1444 1446 1448 1451 1453 1457 1460 1461
1355 1359 1362 1365 1368 1370 1375 1381 1385 1387 1389 1391 1391 1391 1393 1396 1399 1402 1404 1407 1408 1410 1410 1412 1414 1416 1419 1420 1424 1425 1428 1431 1434 1433 1433 1435 1432 1425 1426 1429 1433 1435 1437 1440 1441 1441 1443 1446 1448 1451 1455 1458 1460 1462
1355 1359 1361 1363 1367 1371 1377 1381 1384 1387 1388 1389 1388 1392 1396 1397 1397 1400 1406 1406 1405 1407 1409 1411 1412 1414 1417 1418 1421 1427 1429 1433 1432 1433 1436 1439 1426 1423 1425 1429 1433 1436 1438 1441 1443 1444 1446 1448 1451 1453 1456 1458 1461 1463
1355 1358 1360 1365 1370 1375 1378 1382 1385 1385 1387 1390 1390 1392 1392 1398 1404 1406 1412 1407 1408 1406 1408 1409 1413 1414 1418 1420 1424 1426 1433 1435 1432 1438 1436 1429 1424 1424 1426 1429 1433 1437 1439 1442 1444 1446 1448 1450 1453 1455 1457 1459 1461 1463
1356 1360 1365 1370 1374 1378 1382 1383 1384 1386 1390 1393 1393 1399 1401 1408 1405 1405 1404 1405 1406 1406 1407 1409 1413 1415 1419 1422 1427 1433 1435 1434 1443 1442 1429 1427 1425 1426 1428 1431 1435 1437 1440 1442 1445 1447 1449 1451 1453 1456 1458 1460 1461 1462
1363 1367 1372 1376 1378 1380 1383 1385 1388 1391 1391 1393 1395 1405 1406 1406 1406 1406 1406 1406 1406 1408 1409 1411 1415 1417 1422 1427 1429 1433 1436 1440 1435 1433 1429 1427 1427 1429 1430 1433 1436 1438 1441 1443 1446 1448 1450 1452 1454 1456 1458 1460 1462 1463
1369 1374 1378 1381 1383 1385 1386 1389 1391 1391 1395 1400 1404 1407 1407 1406 1407 1407 1407 1408 1408 1409 1410 1412 1417 1421 1426 1427 1427 1430 1430 1434 1431 1429 1429 1429 1429 1431 1433 1435 1437 1440 1442 1444 1446 1448 1450 1452 1454 1455 1458 1459 1461 1463
1375 1378 1384 1386 1388 1389 1392 1393 1393 1396 1401 1405 1409 1410 1410 1410 1410 1410 1410 1410 1410 1411 1415 1416 1422 1423 1425 1428 1427 1426 1431 1430 1430 1430 1431 1431 1432 1434 1435 1437 1439 1441 1443 1445 1447 1448 1450 1451 1453 1455 1457 1458 1460 1462
1382 1386 1388 1390 1392 1393 1394 1394 1398 1404 1410 1412 1412 1412 1412 1412 1412 1411 1411 1412 1412 1413 1415 1418 1419 1423 1432 1428 1427 1428 1429 1431 1432 1433 1434 1434 1435 1436 1437 1439 1440 1442 1444 1445 1447 1448 1450 1451 1453 1454 1456 1457 1458 1460
1388 1391 1392 1394 1395 1396 1398 1402 1404 1410 1414 1414 1415 1415 1414 1414 1414 1413 1414 1414 1414 1415 1417 1420 1423 1425 1427 1428 1427 1428 1429 1431 1433 1435 1435 1436 1437 1438 1439 1440 1441 1443 1445 1446 1448 1448 1449 1450 1452 1453 1454 1455 1456 1457
1395 1396 1397 1398 1399 1400 1404 1408 1410 1412 1415 1417 1416 1416 1416 1416 1416 1416 1416 1416 1416 1418 1422 1426 1429 1430 1429 1429 1429 1430 1431 1432 1434 1436 1437 1438 1438 1440 1440 1441 1443 1445 1446 1447 1448 1449 1450 1450 1451 1452 1453 1453 1454 1455
1400 1400 1401 1402 1403 1405 1409 1411 1413 1415 1416 1417 1417 1417 1418 1418 1418 1418 1418 1418 1419 1426 1430 1431 1431 1431 1431 1432 1433 1434 1434 1435 1436 1437 1436 1438 1440 1441 1442 1443 1444 1445 1446 1447 1448 1449 1449 1450 1450 1450 1451 1452 1452 1453
1403 1403 1404 1404 1406 1410 1413 1414 1415 1416 1418 1418 1418 1419 1420 1421 1421 1422 1423 1424 1430 1432 1432 1433 1434 1434 1434 1435 1436 1436 1437 1437 1438 1437 1438 1440 1442 1444 1445 1445 1446 1447 1448 1449 1450 1450 1450 1450 1450 1451 1451 1452 1452 1453
1406 1406 1406 1408 1409 1412 1418 1416 1417 1417 1418 1419 1419 1420 1422 1423 1425 1426 1429 1432 1434 1434 1434 1434 1435 1436 1437 1438 1439 1439 1440 1440 1440 1441 1443 1444 1446 1446 1447 1447 1447 1448 1449 1449 1449 1450 1450 1450 1450 1451 1451 1452 1453 1454
1408 1409 1411 1413 1415 1418 1418 1418 1419 1419 1420 1421 1423 1425 1425 1425 1426 1428 1432 1434 1435 1435 1435 1436 1437 1438 1439 1440 1441 1441 1442 1443 1443 1444 1446 1447 1447 1448 1448 1448 1448 1448 1448 1447 1448 1448 1448 1449 1449 1450 1450 1452 1453 1454
1413 1419 1419 1419 1420 1420 1424 1424 1423 1423 1428 1426 1427 1428 1426 1426 1428 1431 1434 1436 1436 1436 1436 1437 1438 1439 1440 1441 1442 1442 1443 1444 1445 1445 1446 1447 1447 1447 1447 1447 1447 1446 1446 1447 1447 1447 1447 1447 1448 1449 1450 1452 1453 1454
1421 1423 1423 1423 1424 1425 1426 1429 1429 1429 1429 1429 1428 1426 1426 1428 1434 1434 1434 1435 1436 1437 1437 1438 1439 1439 1440 1441 1442 1443 1443 1444 1444 1445 1445 1446 1446 1446 1446 1447 1446 1446 1446 1446 1446 1446 1446 1446 1447 1448 1450 1452 1453 1454
1427 1426 1425 1426 1425 1425 1426 1426 1427 1427 1431 1431 1429 1428 1430 1437 1439 1435 1434 1435 1436 1437 1437 1438 1438 1439 1440 1440 1441 1441 1441 1442 1443 1444 1444 1444 1444 1444 1445 1446 1446 1446 1446 1446 1445 1445 1446 1446 1447 1448 1450 1451 1453 1454
1426 1426 1428 1427 1426 1426 1428 1429 1430 1430 1429 1429 1429 1433 1433 1434 1433 1433 1433 1434 1435 1436 1436 1437 1438 1438 1439 1439 1439 1440 1440 1441 1442 1443 1443 1443 1443 1444 1444 1445 1445 1446 1446 1446 1446 1446 1446 1447 1448 1449 1450 1451 1452 1454
1428 1428 1428 1427 1427 1427 1428 1428 1429 1430 1430 1429 1430 1431 1430 1430 1430 1430 1432 1433 1434 1435 1436 1436 1437 1438 1438 1439 1439 1440 1441 1442 1444 1444 1443 1443 1444 1444 1444 1445 1445 1446 1446 1446 1446 1447 1448 1448 1449 1450 1450 1451 1453 1454
1429 1429 1428 1428 1429 1430 1429 1430 1430 1430 1429 1430 1430 1429 1429 1429 1430 1430 1431 1432 1433 1434 1435 1436 1437 1438 1439 1439 1440 1441 1442 1443 1443 1444 1443 1443 1444 1444 1444 1445 1445 1446 1446 1446 1447 1447 1448 1449 1450 1450 1451 1452 1453 1454
1429 1429 1428 1428 1428 1429 1430 1430 1429 1429 1429 1429 1429 1429 1429 1429 1428 1428 1429 1429 1430 1432 1434 1435 1436 1437 1438 1439 1440 1440 1441 1441 1441 1441 1442 1442 1443 1444 1444 1445 1446 1446 1447 1447 1448 1448 1449 1449 1450 1451 1451 1452 1453 1454
1429 1428 1428 1429 1428 1428 1428 1428 1428 1428 1427 1427 1427 1427 1427 1427 1427 1426 1424 1425 1427 1429 1431 1432 1434 1435 1436 1436 1437 1438 1439 1439 1439 1440 1441 1442 1443 1443 1444 1445 1446 1447 1447 1448 1448 1449 1449 1450 1450 1451 1452 1453 1453 1454
1428 1427 1427 1427 1427 1427 1428 1428 1427 1426 1425 1425 1425 1425 1425 1426 1424 1423 1422 1422 1424 1425 1427 1429 1430 1432 1433 1434 1435 1436 1437 1438 1439 1440 1441 1442 1443 1444 1445 1446 1447 1447 1448 1448 1449 1449 1450 1450 1451 1452 1452 1453 1454 1455